owner,sensor,date,latitude,longitude,vertical_datum,wind_speed,wind_to_direction,wind_speed_of_gust,qcFlag 
TCOON,ioos:station:TCOON:009:1,2010-01-01T00:00:00Z,27.8398,-97.0727,0.0,3.6,55.0,3.9,'11111222,11111222,11111222' 
TCOON,ioos:station:TCOON:009:1,2010-01-01T01:00:00Z,27.8398,-97.0727,0.0,4.6,50.0,5.2,'11111222,11111222,11111222' 
TCOON,ioos:station:TCOON:009:1,2010-01-01T03:00:00Z,27.8398,-97.0727,0.0,5.8,22.0,7.2,'11111222,11111222,11111222' 
TCOON,ioos:station:TCOON:009:1,2010-01-01T04:00:00Z,27.8398,-97.0727,0.0,7.9,7.0,10.3,'11111222,11111222,11111222' 
TCOON,ioos:station:TCOON:009:1,2010-01-01T05:00:00Z,27.8398,-97.0727,0.0,8.2,7.0,10.8,'11111222,11111222,11111222' 
TCOON,ioos:station:TCOON:009:1,2010-01-01T06:00:00Z,27.8398,-97.0727,0.0,9.5,359.0,12.0,'11111222,11111222,11111222' 
TCOON,ioos:station:TCOON:009:1,2010-01-01T07:00:00Z,27.8398,-97.0727,0.0,9.3,355.0,12.7,'11111222,11111222,11111222' 
TCOON,ioos:station:TCOON:009:1,2010-01-01T08:00:00Z,27.8398,-97.0727,0.0,6.7,348.0,16.9,'11111222,11111222,11111222' 
TCOON,ioos:station:TCOON:009:1,2010-01-01T09:00:00Z,27.8398,-97.0727,0.0,11.3,355.0,13.2,'11111222,11111222,11111222' 
TCOON,ioos:station:TCOON:009:1,2010-01-01T10:00:00Z,27.8398,-97.0727,0.0,9.1,360.0,11.7,'11111222,11144222,11111222' 
TCOON,ioos:station:TCOON:009:1,2010-01-01T11:00:00Z,27.8398,-97.0727,0.0,5.8,336.0,8.5,'11111222,11111222,11111222' 
TCOON,ioos:station:TCOON:009:1,2010-01-01T12:00:00Z,27.8398,-97.0727,0.0,6.4,357.0,7.6,'11111222,11111222,11111222' 
TCOON,ioos:station:TCOON:009:1,2010-01-01T13:00:00Z,27.8398,-97.0727,0.0,7.4,2.0,8.9,'11111222,11111222,11111222' 
TCOON,ioos:station:TCOON:009:1,2010-01-01T14:00:00Z,27.8398,-97.0727,0.0,7.5,360.0,8.3,'11111222,11144222,11111222' 
TCOON,ioos:station:TCOON:009:1,2010-01-01T15:00:00Z,27.8398,-97.0727,0.0,6.4,7.0,7.6,'11111222,11111222,11111222' 
TCOON,ioos:station:TCOON:009:1,2010-01-01T16:00:00Z,27.8398,-97.0727,0.0,6.1,355.0,8.1,'11111222,11111222,11111222' 
TCOON,ioos:station:TCOON:009:1,2010-01-01T17:00:00Z,27.8398,-97.0727,0.0,4.7,27.0,7.2,'11111222,11111222,11111222' 
TCOON,ioos:station:TCOON:009:1,2010-01-01T18:00:00Z,27.8398,-97.0727,0.0,6.2,25.0,7.3,'11111222,11111222,11111222' 
TCOON,ioos:station:TCOON:009:1,2010-01-01T19:00:00Z,27.8398,-97.0727,0.0,5.4,31.0,6.9,'11111222,11111222,11111222' 
TCOON,ioos:station:TCOON:009:1,2010-01-01T20:00:00Z,27.8398,-97.0727,0.0,4.2,23.0,6.0,'11111222,11111222,11111222' 
TCOON,ioos:station:TCOON:009:1,2010-01-01T21:00:00Z,27.8398,-97.0727,0.0,2.7,55.0,4.1,'11111222,11111222,11111222' 
TCOON,ioos:station:TCOON:009:1,2010-01-01T22:00:00Z,27.8398,-97.0727,0.0,2.8,101.0,3.8,'11111222,11111222,11111222' 
TCOON,ioos:station:TCOON:009:1,2010-01-01T23:00:00Z,27.8398,-97.0727,0.0,1.4,132.0,2.5,'11111222,11111222,11111222' 
TCOON,ioos:station:TCOON:009:1,2010-01-02T00:00:00Z,27.8398,-97.0727,0.0,0.0,190.0,0.3,'11111222,11111222,11111222' 
TCOON,ioos:station:TCOON:009:1,2010-01-02T01:00:00Z,27.8398,-97.0727,0.0,0.0,176.0,99.0,'11111222,11111222,11144222' 
TCOON,ioos:station:TCOON:009:1,2010-01-02T02:00:00Z,27.8398,-97.0727,0.0,1.5,101.0,1.9,'11111222,11111222,11111222' 
TCOON,ioos:station:TCOON:009:1,2010-01-02T03:00:00Z,27.8398,-97.0727,0.0,1.5,119.0,1.5,'11111222,11111222,11111222' 
TCOON,ioos:station:TCOON:009:1,2010-01-02T04:00:00Z,27.8398,-97.0727,0.0,2.9,79.0,3.3,'11111222,11111222,11111222' 
TCOON,ioos:station:TCOON:009:1,2010-01-02T05:00:00Z,27.8398,-97.0727,0.0,4.6,65.0,4.9,'11111222,11111222,11111222' 
TCOON,ioos:station:TCOON:009:1,2010-01-02T06:00:00Z,27.8398,-97.0727,0.0,4.2,58.0,5.5,'11111222,11111222,11111222' 
TCOON,ioos:station:TCOON:009:1,2010-01-02T07:00:00Z,27.8398,-97.0727,0.0,2.0,7.0,2.2,'11111222,11111222,11111222' 
TCOON,ioos:station:TCOON:009:1,2010-01-02T08:00:00Z,27.8398,-97.0727,0.0,1.8,7.0,2.0,'11111222,11111222,11111222' 
TCOON,ioos:station:TCOON:009:1,2010-01-02T09:00:00Z,27.8398,-97.0727,0.0,1.9,346.0,2.2,'11111222,11111222,11111222' 
TCOON,ioos:station:TCOON:009:1,2010-01-02T11:00:00Z,27.8398,-97.0727,0.0,4.5,8.0,4.9,'11111222,11111222,11111222' 
TCOON,ioos:station:TCOON:009:1,2010-01-02T12:00:00Z,27.8398,-97.0727,0.0,3.6,15.0,4.3,'11111222,11111222,11111222' 
TCOON,ioos:station:TCOON:009:1,2010-01-02T13:00:00Z,27.8398,-97.0727,0.0,2.9,28.0,3.7,'11111222,11111222,11111222' 
TCOON,ioos:station:TCOON:009:1,2010-01-02T14:00:00Z,27.8398,-97.0727,0.0,4.6,28.0,6.0,'11111222,11111222,11111222' 
TCOON,ioos:station:TCOON:009:1,2010-01-02T15:00:00Z,27.8398,-97.0727,0.0,4.8,37.0,6.0,'11111222,11111222,11111222' 
TCOON,ioos:station:TCOON:009:1,2010-01-02T16:00:00Z,27.8398,-97.0727,0.0,5.0,41.0,6.6,'11111222,11111222,11111222' 
TCOON,ioos:station:TCOON:009:1,2010-01-02T17:00:00Z,27.8398,-97.0727,0.0,5.9,45.0,6.9,'11111222,11111222,11111222' 
TCOON,ioos:station:TCOON:009:1,2010-01-02T18:00:00Z,27.8398,-97.0727,0.0,7.4,52.0,8.9,'11111222,11111222,11111222' 
TCOON,ioos:station:TCOON:009:1,2010-01-02T19:00:00Z,27.8398,-97.0727,0.0,7.5,53.0,8.7,'11111222,11111222,11111222' 
TCOON,ioos:station:TCOON:009:1,2010-01-02T20:00:00Z,27.8398,-97.0727,0.0,8.2,60.0,9.1,'11111222,11111222,11111222' 
TCOON,ioos:station:TCOON:009:1,2010-01-02T21:00:00Z,27.8398,-97.0727,0.0,8.0,64.0,9.6,'11111222,11111222,11111222' 
TCOON,ioos:station:TCOON:009:1,2010-01-02T23:00:00Z,27.8398,-97.0727,0.0,7.0,73.0,8.6,'11111222,11111222,11111222' 
TCOON,ioos:station:TCOON:009:1,2010-01-03T01:00:00Z,27.8398,-97.0727,0.0,7.8,76.0,9.2,'11111222,11111222,11111222' 
TCOON,ioos:station:TCOON:009:1,2010-01-03T02:00:00Z,27.8398,-97.0727,0.0,6.1,76.0,8.0,'11111222,11111222,11111222' 
TCOON,ioos:station:TCOON:009:1,2010-01-03T03:00:00Z,27.8398,-97.0727,0.0,5.6,85.0,8.0,'11111222,11111222,11111222' 
TCOON,ioos:station:TCOON:009:1,2010-01-03T04:00:00Z,27.8398,-97.0727,0.0,5.2,81.0,6.0,'11111222,11111222,11111222' 
TCOON,ioos:station:TCOON:009:1,2010-01-03T05:00:00Z,27.8398,-97.0727,0.0,5.0,80.0,6.2,'11111222,11111222,11111222' 
TCOON,ioos:station:TCOON:009:1,2010-01-03T06:00:00Z,27.8398,-97.0727,0.0,4.9,73.0,12.3,'11111222,11111222,11111222' 
TCOON,ioos:station:TCOON:009:1,2010-01-03T07:00:00Z,27.8398,-97.0727,0.0,5.4,64.0,6.3,'11111222,11111222,11111222' 
TCOON,ioos:station:TCOON:009:1,2010-01-03T08:00:00Z,27.8398,-97.0727,0.0,5.7,45.0,7.4,'11111222,11111222,11111222' 
TCOON,ioos:station:TCOON:009:1,2010-01-03T09:00:00Z,27.8398,-97.0727,0.0,7.2,53.0,8.0,'11111222,11111222,11111222' 
TCOON,ioos:station:TCOON:009:1,2010-01-03T10:00:00Z,27.8398,-97.0727,0.0,6.2,55.0,7.2,'11111222,11111222,11111222' 
TCOON,ioos:station:TCOON:009:1,2010-01-03T11:00:00Z,27.8398,-97.0727,0.0,6.5,59.0,7.5,'11111222,11111222,11111222' 
TCOON,ioos:station:TCOON:009:1,2010-01-03T12:00:00Z,27.8398,-97.0727,0.0,5.3,52.0,6.3,'11111222,11111222,11111222' 
TCOON,ioos:station:TCOON:009:1,2010-01-03T13:00:00Z,27.8398,-97.0727,0.0,6.4,56.0,7.4,'11111222,11111222,11111222' 
TCOON,ioos:station:TCOON:009:1,2010-01-03T14:00:00Z,27.8398,-97.0727,0.0,4.6,33.0,6.1,'11111222,11111222,11111222' 
TCOON,ioos:station:TCOON:009:1,2010-01-03T15:00:00Z,27.8398,-97.0727,0.0,5.6,62.0,7.0,'11111222,11111222,11111222' 
TCOON,ioos:station:TCOON:009:1,2010-01-03T16:00:00Z,27.8398,-97.0727,0.0,4.9,64.0,6.2,'11111222,11111222,11111222' 
TCOON,ioos:station:TCOON:009:1,2010-01-03T17:00:00Z,27.8398,-97.0727,0.0,4.2,55.0,4.9,'11111222,11111222,11111222' 
TCOON,ioos:station:TCOON:009:1,2010-01-03T18:00:00Z,27.8398,-97.0727,0.0,6.0,50.0,7.3,'11111222,11111222,11111222' 
TCOON,ioos:station:TCOON:009:1,2010-01-03T19:00:00Z,27.8398,-97.0727,0.0,6.1,49.0,7.4,'11111222,11111222,11111222' 
TCOON,ioos:station:TCOON:009:1,2010-01-03T20:00:00Z,27.8398,-97.0727,0.0,7.9,44.0,9.2,'11111222,11111222,11111222' 
TCOON,ioos:station:TCOON:009:1,2010-01-03T21:00:00Z,27.8398,-97.0727,0.0,7.2,45.0,9.3,'11111222,11111222,11111222' 
TCOON,ioos:station:TCOON:009:1,2010-01-03T22:00:00Z,27.8398,-97.0727,0.0,6.9,50.0,9.0,'11111222,11111222,11111222' 
TCOON,ioos:station:TCOON:009:1,2010-01-03T23:00:00Z,27.8398,-97.0727,0.0,9.3,46.0,10.8,'11111222,11111222,11111222' 
TCOON,ioos:station:TCOON:009:1,2010-01-04T01:00:00Z,27.8398,-97.0727,0.0,6.9,37.0,8.0,'11111222,11111222,11111222' 
TCOON,ioos:station:TCOON:009:1,2010-01-04T02:00:00Z,27.8398,-97.0727,0.0,7.3,38.0,9.0,'11111222,11111222,11111222' 
TCOON,ioos:station:TCOON:009:1,2010-01-04T03:00:00Z,27.8398,-97.0727,0.0,6.3,39.0,8.6,'11111222,11111222,11111222' 
TCOON,ioos:station:TCOON:009:1,2010-01-04T04:00:00Z,27.8398,-97.0727,0.0,6.3,31.0,7.9,'11111222,11111222,11111222' 
TCOON,ioos:station:TCOON:009:1,2010-01-04T05:00:00Z,27.8398,-97.0727,0.0,7.3,28.0,9.0,'11111222,11111222,11111222' 
TCOON,ioos:station:TCOON:009:1,2010-01-04T06:00:00Z,27.8398,-97.0727,0.0,7.5,29.0,9.0,'11111222,11111222,11111222' 
TCOON,ioos:station:TCOON:009:1,2010-01-04T07:00:00Z,27.8398,-97.0727,0.0,6.0,25.0,7.9,'11111222,11111222,11111222' 
TCOON,ioos:station:TCOON:009:1,2010-01-04T08:00:00Z,27.8398,-97.0727,0.0,7.2,23.0,9.1,'11111222,11111222,11111222' 
TCOON,ioos:station:TCOON:009:1,2010-01-04T09:00:00Z,27.8398,-97.0727,0.0,7.4,29.0,10.7,'11111222,11111222,11111222' 
TCOON,ioos:station:TCOON:009:1,2010-01-04T10:00:00Z,27.8398,-97.0727,0.0,6.4,19.0,8.9,'11111222,11111222,11111222' 
TCOON,ioos:station:TCOON:009:1,2010-01-04T11:00:00Z,27.8398,-97.0727,0.0,7.1,23.0,9.9,'11111222,11111222,11111222' 
TCOON,ioos:station:TCOON:009:1,2010-01-04T12:00:00Z,27.8398,-97.0727,0.0,7.5,25.0,10.1,'11111222,11111222,11111222' 
TCOON,ioos:station:TCOON:009:1,2010-01-04T14:00:00Z,27.8398,-97.0727,0.0,7.7,2.0,9.1,'11111222,11111222,11111222' 
TCOON,ioos:station:TCOON:009:1,2010-01-04T16:00:00Z,27.8398,-97.0727,0.0,6.5,360.0,8.7,'11111222,11144222,11111222' 
TCOON,ioos:station:TCOON:009:1,2010-01-04T17:00:00Z,27.8398,-97.0727,0.0,7.6,354.0,9.3,'11111222,11111222,11111222' 
TCOON,ioos:station:TCOON:009:1,2010-01-04T18:00:00Z,27.8398,-97.0727,0.0,7.7,1.0,10.0,'11111222,11111222,11111222' 
TCOON,ioos:station:TCOON:009:1,2010-01-04T19:00:00Z,27.8398,-97.0727,0.0,6.0,358.0,9.2,'11111222,11111222,11111222' 
TCOON,ioos:station:TCOON:009:1,2010-01-05T00:00:00Z,27.8398,-97.0727,0.0,4.4,11.0,5.7,'11111222,11111222,11111222' 
TCOON,ioos:station:TCOON:009:1,2010-01-05T01:00:00Z,27.8398,-97.0727,0.0,4.7,44.0,5.8,'11111222,11111222,11111222' 
TCOON,ioos:station:TCOON:009:1,2010-01-05T02:00:00Z,27.8398,-97.0727,0.0,6.5,29.0,8.0,'11111222,11111222,11111222' 
TCOON,ioos:station:TCOON:009:1,2010-01-05T03:00:00Z,27.8398,-97.0727,0.0,4.8,29.0,6.6,'11111222,11111222,11111222' 
TCOON,ioos:station:TCOON:009:1,2010-01-05T04:00:00Z,27.8398,-97.0727,0.0,5.0,32.0,7.1,'11111222,11111222,11111222' 
TCOON,ioos:station:TCOON:009:1,2010-01-05T05:00:00Z,27.8398,-97.0727,0.0,4.4,36.0,5.8,'11111222,11111222,11111222' 
TCOON,ioos:station:TCOON:009:1,2010-01-05T06:00:00Z,27.8398,-97.0727,0.0,5.2,33.0,6.9,'11111222,11111222,11111222' 
TCOON,ioos:station:TCOON:009:1,2010-01-05T07:00:00Z,27.8398,-97.0727,0.0,6.2,42.0,7.2,'11111222,11111222,11111222' 
TCOON,ioos:station:TCOON:009:1,2010-01-05T08:00:00Z,27.8398,-97.0727,0.0,6.3,40.0,7.5,'11111222,11111222,11111222' 
TCOON,ioos:station:TCOON:009:1,2010-01-05T09:00:00Z,27.8398,-97.0727,0.0,5.5,39.0,6.6,'11111222,11111222,11111222' 
TCOON,ioos:station:TCOON:009:1,2010-01-05T10:00:00Z,27.8398,-97.0727,0.0,6.3,38.0,7.4,'11111222,11111222,11111222' 
TCOON,ioos:station:TCOON:009:1,2010-01-05T11:00:00Z,27.8398,-97.0727,0.0,5.1,32.0,6.8,'11111222,11111222,11111222' 
TCOON,ioos:station:TCOON:009:1,2010-01-05T12:00:00Z,27.8398,-97.0727,0.0,5.6,31.0,7.4,'11111222,11111222,11111222' 
TCOON,ioos:station:TCOON:009:1,2010-01-05T14:00:00Z,27.8398,-97.0727,0.0,6.2,31.0,7.4,'11111222,11111222,11111222' 
TCOON,ioos:station:TCOON:009:1,2010-01-05T15:00:00Z,27.8398,-97.0727,0.0,6.9,35.0,8.1,'11111222,11111222,11111222' 
TCOON,ioos:station:TCOON:009:1,2010-01-05T16:00:00Z,27.8398,-97.0727,0.0,6.0,46.0,7.1,'11111222,11111222,11111222' 
TCOON,ioos:station:TCOON:009:1,2010-01-05T17:00:00Z,27.8398,-97.0727,0.0,4.4,43.0,5.6,'11111222,11111222,11111222' 
TCOON,ioos:station:TCOON:009:1,2010-01-05T18:00:00Z,27.8398,-97.0727,0.0,2.7,51.0,5.7,'11111222,11111222,11111222' 
TCOON,ioos:station:TCOON:009:1,2010-01-05T19:00:00Z,27.8398,-97.0727,0.0,4.9,54.0,7.0,'11111222,11111222,11111222' 
TCOON,ioos:station:TCOON:009:1,2010-01-05T20:00:00Z,27.8398,-97.0727,0.0,4.7,57.0,6.1,'11111222,11111222,11111222' 
TCOON,ioos:station:TCOON:009:1,2010-01-05T21:00:00Z,27.8398,-97.0727,0.0,5.3,77.0,5.9,'11111222,11111222,11111222' 
TCOON,ioos:station:TCOON:009:1,2010-01-05T22:00:00Z,27.8398,-97.0727,0.0,5.3,63.0,6.1,'11111222,11111222,11111222' 
TCOON,ioos:station:TCOON:009:1,2010-01-05T23:00:00Z,27.8398,-97.0727,0.0,4.8,76.0,5.3,'11111222,11111222,11111222' 
TCOON,ioos:station:TCOON:009:1,2010-01-06T00:00:00Z,27.8398,-97.0727,0.0,3.6,67.0,4.5,'11111222,11111222,11111222' 
TCOON,ioos:station:TCOON:009:1,2010-01-06T01:00:00Z,27.8398,-97.0727,0.0,2.6,90.0,3.9,'11111222,11111222,11111222' 
TCOON,ioos:station:TCOON:009:1,2010-01-06T02:00:00Z,27.8398,-97.0727,0.0,2.7,112.0,3.8,'11111222,11111222,11111222' 
TCOON,ioos:station:TCOON:009:1,2010-01-06T03:00:00Z,27.8398,-97.0727,0.0,3.3,93.0,4.5,'11111222,11111222,11111222' 
TCOON,ioos:station:TCOON:009:1,2010-01-06T04:00:00Z,27.8398,-97.0727,0.0,4.4,102.0,6.5,'11111222,11111222,11111222' 
TCOON,ioos:station:TCOON:009:1,2010-01-06T05:00:00Z,27.8398,-97.0727,0.0,4.0,107.0,5.3,'11111222,11111222,11111222' 
TCOON,ioos:station:TCOON:009:1,2010-01-06T06:00:00Z,27.8398,-97.0727,0.0,4.3,95.0,5.9,'11111222,11111222,11111222' 
TCOON,ioos:station:TCOON:009:1,2010-01-06T07:00:00Z,27.8398,-97.0727,0.0,3.0,122.0,5.2,'11111222,11111222,11111222' 
TCOON,ioos:station:TCOON:009:1,2010-01-06T08:00:00Z,27.8398,-97.0727,0.0,3.6,111.0,4.8,'11111222,11111222,11111222' 
TCOON,ioos:station:TCOON:009:1,2010-01-06T09:00:00Z,27.8398,-97.0727,0.0,2.8,106.0,4.8,'11111222,11111222,11111222' 
TCOON,ioos:station:TCOON:009:1,2010-01-06T11:00:00Z,27.8398,-97.0727,0.0,3.2,110.0,4.1,'11111222,11111222,11111222' 
TCOON,ioos:station:TCOON:009:1,2010-01-06T12:00:00Z,27.8398,-97.0727,0.0,3.4,129.0,4.4,'11111222,11111222,11111222' 
TCOON,ioos:station:TCOON:009:1,2010-01-06T13:00:00Z,27.8398,-97.0727,0.0,3.6,117.0,5.0,'11111222,11111222,11111222' 
TCOON,ioos:station:TCOON:009:1,2010-01-06T14:00:00Z,27.8398,-97.0727,0.0,3.3,113.0,5.4,'11111222,11111222,11111222' 
TCOON,ioos:station:TCOON:009:1,2010-01-06T15:00:00Z,27.8398,-97.0727,0.0,2.6,115.0,3.9,'11111222,11111222,11111222' 
TCOON,ioos:station:TCOON:009:1,2010-01-06T16:00:00Z,27.8398,-97.0727,0.0,2.2,124.0,4.3,'11111222,11111222,11111222' 
TCOON,ioos:station:TCOON:009:1,2010-01-06T17:00:00Z,27.8398,-97.0727,0.0,2.7,148.0,3.1,'11111222,11111222,11111222' 
TCOON,ioos:station:TCOON:009:1,2010-01-06T18:00:00Z,27.8398,-97.0727,0.0,2.6,138.0,4.4,'11111222,11111222,11111222' 
TCOON,ioos:station:TCOON:009:1,2010-01-06T19:00:00Z,27.8398,-97.0727,0.0,4.4,144.0,5.9,'11111222,11111222,11111222' 
TCOON,ioos:station:TCOON:009:1,2010-01-06T20:00:00Z,27.8398,-97.0727,0.0,2.9,157.0,6.6,'11111222,11111222,11111222' 
TCOON,ioos:station:TCOON:009:1,2010-01-06T21:00:00Z,27.8398,-97.0727,0.0,4.6,153.0,6.5,'11111222,11111222,11111222' 
TCOON,ioos:station:TCOON:009:1,2010-01-06T22:00:00Z,27.8398,-97.0727,0.0,3.7,147.0,5.4,'11111222,11111222,11111222' 
TCOON,ioos:station:TCOON:009:1,2010-01-06T23:00:00Z,27.8398,-97.0727,0.0,3.4,162.0,6.3,'11111222,11111222,11111222' 
TCOON,ioos:station:TCOON:009:1,2010-01-07T00:00:00Z,27.8398,-97.0727,0.0,4.2,176.0,5.7,'11111222,11111222,11111222' 
TCOON,ioos:station:TCOON:009:1,2010-01-07T02:00:00Z,27.8398,-97.0727,0.0,3.9,180.0,5.6,'11111222,11111222,11111222' 
TCOON,ioos:station:TCOON:009:1,2010-01-07T03:00:00Z,27.8398,-97.0727,0.0,2.9,177.0,4.2,'11111222,11111222,11111222' 
TCOON,ioos:station:TCOON:009:1,2010-01-07T04:00:00Z,27.8398,-97.0727,0.0,3.2,176.0,4.9,'11111222,11111222,11111222' 
TCOON,ioos:station:TCOON:009:1,2010-01-07T05:00:00Z,27.8398,-97.0727,0.0,3.9,180.0,6.0,'11111222,11111222,11111222' 
TCOON,ioos:station:TCOON:009:1,2010-01-07T06:00:00Z,27.8398,-97.0727,0.0,4.0,182.0,6.0,'11111222,11111222,11111222' 
TCOON,ioos:station:TCOON:009:1,2010-01-07T07:00:00Z,27.8398,-97.0727,0.0,3.3,179.0,4.9,'11111222,11111222,11111222' 
TCOON,ioos:station:TCOON:009:1,2010-01-07T08:00:00Z,27.8398,-97.0727,0.0,0.8,200.0,2.3,'11111222,11111222,11111222' 
TCOON,ioos:station:TCOON:009:1,2010-01-07T09:00:00Z,27.8398,-97.0727,0.0,1.5,201.0,3.1,'11111222,11111222,11111222' 
TCOON,ioos:station:TCOON:009:1,2010-01-07T10:00:00Z,27.8398,-97.0727,0.0,0.0,303.0,99.0,'11111222,11111222,11144222' 
TCOON,ioos:station:TCOON:009:1,2010-01-07T11:00:00Z,27.8398,-97.0727,0.0,0.0,342.0,99.0,'11111222,11111222,11144222' 
TCOON,ioos:station:TCOON:009:1,2010-01-07T12:00:00Z,27.8398,-97.0727,0.0,1.4,328.0,2.2,'11111222,11111222,11111222' 
TCOON,ioos:station:TCOON:009:1,2010-01-07T13:00:00Z,27.8398,-97.0727,0.0,3.0,346.0,3.9,'11111222,11111222,11111222' 
TCOON,ioos:station:TCOON:009:1,2010-01-07T14:00:00Z,27.8398,-97.0727,0.0,3.8,344.0,4.8,'11111222,11111222,11111222' 
TCOON,ioos:station:TCOON:009:1,2010-01-07T15:00:00Z,27.8398,-97.0727,0.0,10.8,3.0,12.5,'11111222,11111222,11111222' 
TCOON,ioos:station:TCOON:009:1,2010-01-07T16:00:00Z,27.8398,-97.0727,0.0,13.0,15.0,14.7,'11111222,11111222,11111222' 
TCOON,ioos:station:TCOON:009:1,2010-01-07T17:00:00Z,27.8398,-97.0727,0.0,11.7,357.0,15.3,'11111222,11111222,11111222' 
TCOON,ioos:station:TCOON:009:1,2010-01-07T18:00:00Z,27.8398,-97.0727,0.0,11.6,2.0,15.2,'11111222,11111222,11111222' 
TCOON,ioos:station:TCOON:009:1,2010-01-07T19:00:00Z,27.8398,-97.0727,0.0,10.1,4.0,14.1,'11111222,11111222,11111222' 
TCOON,ioos:station:TCOON:009:1,2010-01-07T20:00:00Z,27.8398,-97.0727,0.0,9.8,8.0,12.2,'11111222,11111222,11111222' 
TCOON,ioos:station:TCOON:009:1,2010-01-07T21:00:00Z,27.8398,-97.0727,0.0,9.4,8.0,13.7,'11111222,11111222,11111222' 
TCOON,ioos:station:TCOON:009:1,2010-01-07T22:00:00Z,27.8398,-97.0727,0.0,9.0,2.0,11.6,'11111222,11111222,11111222' 
TCOON,ioos:station:TCOON:009:1,2010-01-07T23:00:00Z,27.8398,-97.0727,0.0,8.3,1.0,10.7,'11111222,11111222,11111222' 
TCOON,ioos:station:TCOON:009:1,2010-01-08T00:00:00Z,27.8398,-97.0727,0.0,9.5,360.0,11.7,'11111222,11144222,11111222' 
TCOON,ioos:station:TCOON:009:1,2010-01-08T01:00:00Z,27.8398,-97.0727,0.0,9.8,360.0,13.4,'11111222,11144222,11111222' 
TCOON,ioos:station:TCOON:009:1,2010-01-08T02:00:00Z,27.8398,-97.0727,0.0,10.8,359.0,12.7,'11111222,11111222,11111222' 
TCOON,ioos:station:TCOON:009:1,2010-01-08T03:00:00Z,27.8398,-97.0727,0.0,10.5,1.0,13.4,'11111222,11111222,11111222' 
TCOON,ioos:station:TCOON:009:1,2010-01-08T04:00:00Z,27.8398,-97.0727,0.0,9.5,5.0,11.7,'11111222,11111222,11111222' 
TCOON,ioos:station:TCOON:009:1,2010-01-08T05:00:00Z,27.8398,-97.0727,0.0,9.6,357.0,12.2,'11111222,11111222,11111222' 
TCOON,ioos:station:TCOON:009:1,2010-01-08T06:00:00Z,27.8398,-97.0727,0.0,9.2,2.0,12.8,'11111222,11111222,11111222' 
TCOON,ioos:station:TCOON:009:1,2010-01-08T07:00:00Z,27.8398,-97.0727,0.0,10.3,358.0,12.0,'11111222,11111222,11111222' 
TCOON,ioos:station:TCOON:009:1,2010-01-08T08:00:00Z,27.8398,-97.0727,0.0,7.7,1.0,10.2,'11111222,11111222,11111222' 
TCOON,ioos:station:TCOON:009:1,2010-01-08T10:00:00Z,27.8398,-97.0727,0.0,9.5,359.0,13.0,'11111222,11111222,11111222' 
TCOON,ioos:station:TCOON:009:1,2010-01-08T11:00:00Z,27.8398,-97.0727,0.0,9.5,2.0,11.7,'11111222,11111222,11111222' 
TCOON,ioos:station:TCOON:009:1,2010-01-08T12:00:00Z,27.8398,-97.0727,0.0,10.6,1.0,13.7,'11111222,11111222,11111222' 
TCOON,ioos:station:TCOON:009:1,2010-01-08T13:00:00Z,27.8398,-97.0727,0.0,10.9,360.0,14.6,'11111222,11144222,11111222' 
TCOON,ioos:station:TCOON:009:1,2010-01-08T14:00:00Z,27.8398,-97.0727,0.0,10.1,359.0,12.2,'11111222,11111222,11111222' 
TCOON,ioos:station:TCOON:009:1,2010-01-08T15:00:00Z,27.8398,-97.0727,0.0,9.6,359.0,12.8,'11111222,11111222,11111222' 
TCOON,ioos:station:TCOON:009:1,2010-01-08T16:00:00Z,27.8398,-97.0727,0.0,8.3,356.0,10.6,'11111222,11111222,11111222' 
TCOON,ioos:station:TCOON:009:1,2010-01-08T17:00:00Z,27.8398,-97.0727,0.0,6.9,350.0,10.3,'11111222,11111222,11111222' 
TCOON,ioos:station:TCOON:009:1,2010-01-08T18:00:00Z,27.8398,-97.0727,0.0,6.9,351.0,10.5,'11111222,11111222,11111222' 
TCOON,ioos:station:TCOON:009:1,2010-01-08T19:00:00Z,27.8398,-97.0727,0.0,7.2,344.0,9.6,'11111222,11111222,11111222' 
TCOON,ioos:station:TCOON:009:1,2010-01-08T20:00:00Z,27.8398,-97.0727,0.0,9.0,348.0,10.8,'11111222,11111222,11111222' 
TCOON,ioos:station:TCOON:009:1,2010-01-08T21:00:00Z,27.8398,-97.0727,0.0,7.3,346.0,10.0,'11111222,11111222,11111222' 
TCOON,ioos:station:TCOON:009:1,2010-01-08T22:00:00Z,27.8398,-97.0727,0.0,7.3,343.0,9.0,'11111222,11111222,11111222' 
TCOON,ioos:station:TCOON:009:1,2010-01-08T23:00:00Z,27.8398,-97.0727,0.0,7.3,341.0,9.3,'11111222,11111222,11111222' 
TCOON,ioos:station:TCOON:009:1,2010-01-09T00:00:00Z,27.8398,-97.0727,0.0,6.6,353.0,8.6,'11111222,11111222,11111222' 
TCOON,ioos:station:TCOON:009:1,2010-01-09T01:00:00Z,27.8398,-97.0727,0.0,5.9,350.0,6.8,'11111222,11111222,11111222' 
TCOON,ioos:station:TCOON:009:1,2010-01-09T03:00:00Z,27.8398,-97.0727,0.0,6.3,349.0,8.1,'11111222,11111222,11111222' 
TCOON,ioos:station:TCOON:009:1,2010-01-09T04:00:00Z,27.8398,-97.0727,0.0,6.8,353.0,7.8,'11111222,11111222,11111222' 
TCOON,ioos:station:TCOON:009:1,2010-01-09T05:00:00Z,27.8398,-97.0727,0.0,5.5,355.0,8.1,'11111222,11111222,11111222' 
TCOON,ioos:station:TCOON:009:1,2010-01-09T07:00:00Z,27.8398,-97.0727,0.0,5.2,2.0,7.2,'11111222,11111222,11111222' 
TCOON,ioos:station:TCOON:009:1,2010-01-09T08:00:00Z,27.8398,-97.0727,0.0,5.1,356.0,6.5,'11111222,11111222,11111222' 
TCOON,ioos:station:TCOON:009:1,2010-01-09T09:00:00Z,27.8398,-97.0727,0.0,4.4,356.0,5.8,'11111222,11111222,11111222' 
TCOON,ioos:station:TCOON:009:1,2010-01-09T11:00:00Z,27.8398,-97.0727,0.0,4.5,356.0,6.0,'11111222,11111222,11111222' 
TCOON,ioos:station:TCOON:009:1,2010-01-09T13:00:00Z,27.8398,-97.0727,0.0,4.6,28.0,5.4,'11111222,11111222,11111222' 
TCOON,ioos:station:TCOON:009:1,2010-01-09T14:00:00Z,27.8398,-97.0727,0.0,5.2,32.0,6.9,'11111222,11111222,11111222' 
TCOON,ioos:station:TCOON:009:1,2010-01-09T15:00:00Z,27.8398,-97.0727,0.0,6.5,34.0,7.9,'11111222,11111222,11111222' 
TCOON,ioos:station:TCOON:009:1,2010-01-09T16:00:00Z,27.8398,-97.0727,0.0,5.5,38.0,7.4,'11111222,11111222,11111222' 
TCOON,ioos:station:TCOON:009:1,2010-01-09T17:00:00Z,27.8398,-97.0727,0.0,4.4,14.0,6.0,'11111222,11111222,11111222' 
TCOON,ioos:station:TCOON:009:1,2010-01-09T18:00:00Z,27.8398,-97.0727,0.0,4.2,11.0,5.1,'11111222,11111222,11111222' 
TCOON,ioos:station:TCOON:009:1,2010-01-09T19:00:00Z,27.8398,-97.0727,0.0,2.9,19.0,5.1,'11111222,11111222,11111222' 
TCOON,ioos:station:TCOON:009:1,2010-01-09T21:00:00Z,27.8398,-97.0727,0.0,3.6,10.0,5.1,'11111222,11111222,11111222' 
TCOON,ioos:station:TCOON:009:1,2010-01-09T22:00:00Z,27.8398,-97.0727,0.0,4.7,41.0,5.8,'11111222,11111222,11111222' 
TCOON,ioos:station:TCOON:009:1,2010-01-09T23:00:00Z,27.8398,-97.0727,0.0,4.1,40.0,,'1111122,1111122,1111122' 
TCOON,ioos:station:TCOON:009:1,2010-01-10T00:00:00Z,27.8398,-97.0727,0.0,2.6,50.0,,'1111122,1111122,1111122' 
TCOON,ioos:station:TCOON:009:1,2010-01-10T01:00:00Z,27.8398,-97.0727,0.0,4.1,40.0,,'1111122,1111122,1111122' 
TCOON,ioos:station:TCOON:009:1,2010-01-10T02:00:00Z,27.8398,-97.0727,0.0,4.1,30.0,,'1111122,1111122,1111122' 
TCOON,ioos:station:TCOON:009:1,2010-01-10T03:00:00Z,27.8398,-97.0727,0.0,3.1,30.0,,'1111122,1111122,1111122' 
TCOON,ioos:station:TCOON:009:1,2010-01-10T04:00:00Z,27.8398,-97.0727,0.0,4.1,40.0,,'1111122,1111122,1111122' 
TCOON,ioos:station:TCOON:009:1,2010-01-10T05:00:00Z,27.8398,-97.0727,0.0,4.1,30.0,,'1111122,1111122,1111122' 
TCOON,ioos:station:TCOON:009:1,2010-01-10T06:00:00Z,27.8398,-97.0727,0.0,4.1,40.0,,'1111122,1111122,1111122' 
TCOON,ioos:station:TCOON:009:1,2010-01-10T07:00:00Z,27.8398,-97.0727,0.0,4.6,20.0,,'1111122,1111122,1111122' 
TCOON,ioos:station:TCOON:009:1,2010-01-10T08:00:00Z,27.8398,-97.0727,0.0,4.1,30.0,,'1111122,1111122,1111122' 